Location: Newark
(38.1089°N, 103.8675°W)
Time: 19:46:36
(UTC+00:00)

Envisat - Pass Details

Date: 24 December 2019
Orbit: 764 x 766 km, 98.1° (Epoch: 28 January)

Event Time Altitude Azimuth Distance (km) Brightness Sun altitude
Rises 00:31:58 0° 156° (SSE) 3,218 6.2 -10.0°
Reaches altitude 10° 00:34:17 10° 152° (SSE) 2,296 5.4 -10.4°
Maximum altitude 00:39:16 59° 74° (ENE) 882 3.0 -11.4°
Drops below altitude 10° 00:44:15 10° 356° (N) 2,310 5.3 -12.3°
Sets 00:46:35 0° 352° (N) 3,241 6.1 -12.7°
